Home > Weather > Orange > Past weeks

Flag for U.S.A. Weather for the Past 2 Weeks in Orange, California, U.S.A.

Now
78 °F

Sunny.


Feels Like: 78 °F
Forecast: 56 / 86 °F
Wind: 6 mph from South

Location: John Wayne Airport-Orange County Airport

Current Time: Feb 10, 2016 at 12:43:40 PM

Latest Report: Feb 10, 2016 at 11:53 AM


Visibility: 10 mi

Pressure: 30.12 "Hg

Humidity: 25%

Dew point: 40 °F

Location of OrangeLocation

Historic Weather in Orange — Graph

°F

Orange Temperature Yesterday

Maximum temperature yesterday: 88 °F (at 12:53 PM)
Minimum temperature yesterday: 54 °F (at 5:53 AM)
Average temperature yesterday: 69 °F

High & Low Weather Summary for the Past Weeks

 TemperatureHumidityPressure
High88 °F (Feb 9, 12:53 PM)100% (Jan 31, 9:00 AM)30.36 "Hg (Jan 31, 9:00 AM)
Low37 °F (Feb 2, 4:53 AM)9% (Feb 7, 3:53 PM)29.64 "Hg (Jan 31, 1:53 PM)
Average60 °F48%30.12 "Hg
* Reported Jan 26 10:53 AM — Feb 10 10:53 AM, Orange, Weather by CustomWeather, © 2016

Note: Actual official high and low records may vary slightly from our data, if they occured in-between our weather recording intervals... More about our weather records

Advertising

Orange Weather History for the Previous 24 Hours

 ConditionsComfort  
Time TempWeatherWind HumidityBarometerVisibility
10:53 AM
Wed, Feb 10
76 °FPartly sunny.3 mph24%30.15 "Hg10 mi
9:53 AM72 °FPartly sunny.No wind28%30.15 "Hg10 mi
8:53 AM66 °FPartly sunny.No wind40%30.14 "Hg10 mi
7:53 AM58 °FPartly sunny.No wind50%30.13 "Hg10 mi
6:53 AM55 °FPartly sunny.No wind55%30.11 "Hg10 mi
5:53 AM53 °FPassing clouds.No wind61%30.11 "Hg10 mi
4:53 AM55 °FClear.No wind55%30.10 "Hg10 mi
3:53 AM56 °FClear.No wind51%30.08 "Hg10 mi
2:53 AM56 °FClear.5 mph55%30.09 "Hg10 mi
1:53 AM57 °FClear.No wind53%30.10 "Hg10 mi
12:53 AM59 °FClear.6 mph48%30.11 "Hg10 mi
11:53 PM
Tue, Feb 9
61 °FClear.No wind42%30.09 "Hg10 mi
10:53 PM66 °FPassing clouds.3 mph32%30.08 "Hg10 mi
9:53 PM66 °FClear.3 mph32%30.10 "Hg10 mi
8:53 PM71 °FPassing clouds.3 mph26%30.09 "Hg10 mi
7:53 PM69 °FPassing clouds.3 mph32%30.07 "Hg10 mi
6:53 PM74 °FPassing clouds.No wind25%30.06 "Hg10 mi
5:53 PM73 °FPassing clouds.6 mph27%30.06 "Hg9 mi
4:53 PM82 °FPassing clouds.5 mph16%30.05 "Hg10 mi
3:53 PM82 °FSunny.6 mph18%30.04 "Hg10 mi
2:53 PM85 °FSunny.6 mph17%30.03 "Hg10 mi
1:53 PM84 °FSunny.9 mph26%30.04 "Hg10 mi
12:53 PM88 °FSunny.3 mph11%30.06 "Hg10 mi
Weather by CustomWeather, © 2016

See weather overviewHow to use our weather pages